This demonstration page uses our WeatherBlox Daily Observations layout. Learn more.

41.55636, -103.73856

Hourly Observations for August 21, 2015

Temp ( °F °C ) Dew Point ( °F °C ) Humidity (%) Winds ( mph kmh ) Pressure ( in mb ) Visibility ( mi km ) Precip ( " mm )
12:53 am 00:53 Clear 57 13.9 50 10 78 78 ESE 6 9 29.78 1008 10 16.0934 0 0
1:53 am 01:53 Clear 55 12.8 49 9.4 80 80 E 6 9 29.76 1008 10 16.0934 0 0
2:53 am 02:53 Clear 55 12.8 49 9.4 80 80 E 8 13 29.75 1007 10 16.0934 0 0
3:53 am 03:53 Clear 54 12.2 48 8.9 80 80 ESE 6 9 29.73 1007 10 16.0934 0 0
4:53 am 04:53 Clear 53 11.7 48 8.9 83 83 ESE 6 9 29.72 1007 10 16.0934 0 0
5:53 am 05:53 Clear 52 11.1 48 8.9 86 86 Calm 29.72 1007 10 16.0934 0 0
6:53 am 06:53 Sunny 53 11.7 48 8.9 83 83 ESE 5 7 29.73 1007 10 16.0934 0 0
7:53 am 07:53 Sunny 56 13.3 49 9.4 77 77 ESE 5 7 29.75 1007 10 16.0934 0 0
8:53 am 08:53 Sunny 63 17.2 52 11.1 68 68 Calm 29.74 1007 10 16.0934 0 0
9:53 am 09:53 Sunny 70 21.1 51 10.6 51 51 W 3 6 29.72 1007 10 16.0934 0 0
10:53 am 10:53 Sunny 77 25 49 9.4 37 37 WNW 9 15 29.71 1006 7 11.26538 0 0
11:53 am 11:53 Sunny 80 26.7 51 10.6 37 37 NW 7 11 29.69 1006 7 11.26538 0 0
12:53 pm 12:53 Sunny 85 29.4 48 8.9 28 28 WNW 5 7 29.66 1004 7 11.26538 0 0
1:53 pm 13:53 Sunny 88 31.1 45 7.2 22 22 NW 6 9 29.64 1004 7 11.26538 0 0
2:53 pm 14:53 Sunny 89 31.7 40 4.4 18 18 VRB 5 7 29.62 1003 7 11.26538 0 0
3:53 pm 15:53 Sunny 90 32.2 42 5.6 19 19 E 7 11 29.6 1003 7 11.26538 0 0
4:53 pm 16:53 Sunny 88 31.1 43 6.1 21 21 ESE 8 13 29.59 1002 7 11.26538 0 0
5:53 pm 17:53 Sunny 85 29.4 49 9.4 29 29 SE 9 15 29.59 1002 7 11.26538 0 0
6:53 pm 18:53 Sunny 80 26.7 48 8.9 33 33 SE 9 15 29.59 1002 8 12.87472 0 0
7:53 pm 19:53 Clear 70 21.1 55 12.8 59 59 SE 6 9 29.6 1002 8 12.87472 0 0
8:53 pm 20:53 Clear 67 19.4 54 12.2 63 63 ENE 3 6 29.6 1002 8 12.87472 0 0
9:53 pm 21:53 Clear 65 18.3 53 11.7 66 66 E 9 15 29.58 1002 8 12.87472 0 0
10:53 pm 22:53 Clear 63 17.2 51 10.6 65 65 E 3 6 29.58 1002 8 12.87472 0 0
11:53 pm 23:53 Clear 65 18.3 49 9.4 56 56 SSE 5 7 29.57 1001 9 14.48406 0 0

Powered by AerisWeather